Regional Weather Roundup
Issued by NWS

Home | Current Version | Previous Version | Graphics & Text | Print | Product List | Glossary On
Versions: 1 2 3 4 5 6 7 8 9 10 11 12 13 14 15 16 17 18 19 20 21 22 23 24 25 26 27 28 29 30 31 32 33 34 35 36 37 38 39 40 41 42 43 44 45 46 47 48 49 50
000
ASUS43 KMPX 192201
RWRMN
WEATHER ROUNDUP FOR MINNESOTA
NATIONAL WEATHER SERVICE TWIN CITIES/CHANHASSEN MN
500 PM CDT SAT AUG 19 2017


NOTE: "FAIR" INDICATES FEW OR NO CLOUDS BELOW 12,000 FEET WITH NO
SIGNIFICANT WEATHER AND/OR OBSTRUCTIONS TO VISIBILITY. N/A MEANS
CURRENT SKY AND/OR WEATHER CONDITIONS ARE NOT AVAILABLE.

MNZ060>063-068>070-192300-
   Twin Cities Metro

CITY           SKY/WX    TMP DP  RH WIND       PRES   REMARKS
TWIN CITIES    MOSUNNY   80  60  50 VRB5      29.89F
ST PAUL        SUNNY     79  63  57 S6        29.89F
CRYSTAL        SUNNY     79  57  46 S9        29.88F
BLAINE         MOSUNNY   82  57  42 S8        29.89F
LAKEVILLE      SUNNY     79  63  57 SW3       29.91S
EDEN PRAIRIE   SUNNY     79  63  57 S9        29.89F
SOUTH ST PAUL  MOSUNNY   79  60  52 SW8       29.90S
LAKE ELMO      FAIR      79  63  57 S9        29.91F
$$
MNZ001>005-007-008-013>017-022>024-027-028-192300-
   Northwest Minnesota

CITY           SKY/WX    TMP DP  RH WIND       PRES   REMARKS
BEMIDJI        SUNNY     81  55  41 S9        29.82F
HALLOCK        SUNNY     88  54  31 S17       29.70S
ROSEAU         SUNNY     86  59  39 S15G23    29.74F
WARROAD        SUNNY     82  61  47 S7        29.75F
CROOKSTON      SUNNY     84  57  39 S16G22    29.76F
FOSSTON        SUNNY     82  57  42 S13G18    29.81F
DETROIT LAKES  SUNNY     77  59  53 S9        29.85S
MOORHEAD       SUNNY     81  61  50 S16       29.79F
PARK RAPIDS    SUNNY     80  58  46 S13       29.85S
MAHNOMEN       FAIR      79  60  53 SW15      29.82S
$$
MNZ006-009>011-018-025>026-192300-
   North Central Minnesota

CITY           SKY/WX    TMP DP  RH WIND       PRES   REMARKS
BAUDETTE       SUNNY     82  55  39 SW9       29.77F
FLAG ISLAND    SUNNY     79  63  57 S3        29.74S
INTL FALLS     SUNNY     80  53  39 W8        29.80S
WASKISH        PTSUNNY   81  57  44 SW7       29.81S
BIG FORK       SUNNY     81  57  44 S10       29.84S
LONGVILLE      MOSUNNY   79  61  53 S6        29.85F
GRAND RAPIDS   PTSUNNY   78  60  53 S6        29.87F
CRANE LAKE     MOSUNNY   79  55  44 SW5       29.83F
ORR            SUNNY     79  54  41 S6        29.81F
COOK           SUNNY     79  55  44 SW6       29.85S
WALKER         FAIR      78  59  50 S6        29.84F
$$
MNZ012-019>021-037-192300-
   Northeast Minnesota

CITY           SKY/WX    TMP DP  RH WIND       PRES   REMARKS
DULUTH         MOSUNNY   79  59  50 SW15      29.87F
ELY            PTSUNNY   79  52  38 W8        29.85S
HIBBING        MOSUNNY   77  56  48 VRB6      29.85F
EVELETH        SUNNY     78  43  28 W6        29.87F
DULUTH HARBOR  MOSUNNY   81  63  54 SW10      29.85S
TWO HARBORS    MOSUNNY   82  63  51 W8        29.84S
GRAND MARAIS     N/A     70  63  78 W8        29.82S
G MARAIS ARPRT MOSUNNY   75  52  43 W3        29.88S
$$
MNZ029>031-032-039>041-046>048-054>057-064-192300-
   West Central Minnesota

CITY           SKY/WX    TMP DP  RH WIND       PRES   REMARKS
FERGUS FALLS   SUNNY     79  63  57 S13       29.82F
WHEATON        SUNNY     79  61  53 SE14G20   29.83F
MORRIS         SUNNY     79  64  61 S13       29.84F
ALEXANDRIA     SUNNY     77  60  55 S15       29.89F
ELBOW LAKE     FAIR      76  64  64 S13       29.85F HAZE
WADENA         SUNNY     79  59  50 SW8       29.85F
GLENWOOD       SUNNY     79  61  53 S10       29.89F
APPLETON       SUNNY     81  61  50 S10       29.84F
BENSON         SUNNY     79  61  53 SW12      29.88F
ORTONVILLE     SUNNY     81  63  54 MISG      29.83F
MADISON        SUNNY     82  64  54 S9        29.85F
WILLMAR        FAIR      79  63  57 S7        29.90S
$$
MNZ033>034-036-042>043-049>051-058-059-192300-
   Central Minnesota

CITY           SKY/WX    TMP DP  RH WIND       PRES   REMARKS
ST CLOUD       SUNNY     79  59  50 S12       29.88F
SAUK CENTRE    FAIR      78  61  56 S10       29.89S
PAYNESVILLE    SUNNY     77  63  60 S6        29.90S
AITKIN         MOSUNNY   75  61  60 SW7       29.86S
PINE RIVER     SUNNY     75  57  53 S9        29.89F
BRAINERD       SUNNY     78  59  51 S13       29.87S
STAPLES        SUNNY     79  55  44 S10       29.87S
LONG PRAIRIE   FAIR      75  61  60 SE10      29.88F
LITTLE FALLS   SUNNY     79  55  44 S8        29.88F
LITCHFIELD     SUNNY     79  63  57 S3        29.90S
BUFFALO        SUNNY     78  58  50 S7        29.90F
MAPLE LAKE     SUNNY     79  63  58 CALM      29.90F
HUTCHINSON     SUNNY     78  64  62 S7        29.91F
$$
MNZ037-044-045-052-053-192300-
   East Central Minnesota

CITY           SKY/WX    TMP DP  RH WIND       PRES   REMARKS
PRINCETON      SUNNY     81  57  44 S8        29.88F
MORA           SUNNY     77  57  50 S8        29.90F
CAMBRIDGE      SUNNY     81  61  50 S7        29.89F
RUSH CITY      SUNNY     78  60  53 S6        29.89F HAZE
MOOSE LAKE     MOSUNNY   79  59  50 SW7       29.86F
HINCKLEY       FAIR      79  61  53 SW6       29.89S
CLOQUET        SUNNY     79  55  44 SW10      29.87F
MCGREGOR       MOSUNNY   77  61  57 S9        29.88F
$$
MNZ071>073-080-081-089-090-097-098-192300-
   Southwest Minnesota

CITY           SKY/WX    TMP DP  RH WIND       PRES   REMARKS
MONTEVIDEO     SUNNY     82  64  54 S12       29.86F
GRANITE FALLS  SUNNY     81  64  57 SE10      29.89F
CANBY          SUNNY     81  60  49 SE3       29.86F
MARSHALL       SUNNY     80  62  54 S14       29.87F
REDWOOD FALLS  SUNNY     79  60  52 S13       29.87F
OLIVIA         SUNNY     77  63  61 S9        29.88F
PIPESTONE      SUNNY     79  63  57 S10G16    29.89F
WINDOM         SUNNY     79  61  53 S7        29.91F
WORTHINGTON    SUNNY     78  63  59 SE10      29.91F
JACKSON        SUNNY     77  61  57 S3        29.92F
TRACY          SUNNY     80  65  61 S7        29.89F
SLAYTON        SUNNY     78  59  52 SE10      29.92F
$$
MNZ065>067-074>077-082>085-091>093-192300-
   South Central Minnesota

CITY           SKY/WX    TMP DP  RH WIND       PRES   REMARKS
MANKATO        MOSUNNY   78  65  63 S7        29.91F
NEW ULM        SUNNY     79  63  57 S7        29.90F
ST JAMES       SUNNY     77  64  65 SE6       29.92S
FAIRMONT       SUNNY     78  65  63 S10       29.92F
GLENCOE        SUNNY     79  67  66 SE6       29.90F
FARIBAULT      SUNNY     79  63  57 S8        29.92S
OWATONNA       MOSUNNY   79  66  65 SW5       29.92F
WASECA         PTSUNNY   77  63  61 S8        29.93F
ALBERT LEA     MOSUNNY   81  64  57 S3        29.93F
$$
MNZ078>079-086>088-094>096-192300-
   Southeast Minnesota

CITY           SKY/WX    TMP DP  RH WIND       PRES   REMARKS
ROCHESTER      SUNNY     76  65  68 S9        29.94F
RED WING       SUNNY     81  55  41 S3        29.89F
STANTON        SUNNY     79  62  54 S5        29.90F
DODGE CENTER   MOSUNNY   77  61  57 S6        29.94S
WINONA         MOSUNNY   79  59  50 CALM      29.92F
AUSTIN         PTSUNNY   79  63  57 S8        29.94S
PRESTON        MOSUNNY   77  60  55 S6        29.95S
$$
ABBREVIATIONS USED IN REMARKS
   TC - TEMPERATURES IN CELSIUS
  WCI - WIND CHILL INDEX
   HX - HEAT INDEX
  VSB - VISIBILITY
$$




USA.gov is the U.S. government's official web portal to all federal, state and local government web resources and services.